Date_and_time,latitude,longitude,wind_speed,RelWindDirFrom,WindDirFrom,air_pressure,air_temperature,relative_humidity,Temp,platform_speed_wrt_ground,air_pressure_at_mean_sea_level,platform_orientation
2018-08-31 23:40,50.6304383333333,-96.980765,4.8,6.8,237,977.92,23.9,33,19.60,0.0,1003.25,360.0
2018-08-31 23:50,50.6304383333333,-96.980765,5.3,9.8,237,977.82,23.7,34,19.57,0.0,1003.15,360.0
2018-09-01 00:00,50.63044,-96.980765,4.4,6.4,235,977.76,23.7,35,19.60,0.0,1003.10,90.0
2018-09-01 00:10,50.63046,-96.98077,4.5,6.8,238,977.83,23.7,36,19.52,0.0,1003.19,90.0
2018-09-01 00:20,50.6304333333333,-96.9807666666667,5.1,6.7,238,977.89,23.5,37,19.60,0.0,1003.26,90.0
2018-09-01 00:30,50.6304383333333,-96.9807583333333,4.7,7.6,241,977.95,23.3,38,19.69,0.0,1003.35,90.0
2018-09-01 00:40,50.630445,-96.9807683333333,4.3,6.8,235,977.92,23.0,40,19.53,0.0,1003.33,90.0
2018-09-01 00:50,50.6304466666667,-96.98077,3.9,5.3,235,977.97,22.5,42,19.44,0.0,1003.40,90.0
2018-09-01 01:00,50.6304483333333,-96.98077,3.7,5.5,239,977.99,22.1,43,19.38,0.0,1003.43,38.0
2018-09-01 01:10,50.6304483333333,-96.9807666666667,3.6,4.9,237,978.07,21.7,44,19.42,0.0,1003.52,38.0
2018-09-01 01:20,50.63045,-96.9807666666667,4.0,5.0,235,978.13,21.3,46,19.39,0.0,1003.59,38.0
2018-09-01 01:30,50.63044,-96.98076,3.4,4.1,232,978.20,20.8,48,19.43,0.0,1003.67,38.0
2018-09-01 01:40,50.6304566666667,-96.9808066666667,2.8,3.5,230,978.26,20.4,49,19.39,0.0,1003.77,38.0
2018-09-01 01:50,50.6304416666667,-96.9807716666667,2.6,3.4,232,978.33,20.0,50,19.54,0.0,1003.85,38.0
2018-09-01 02:00,50.6304433333333,-96.9807633333333,3.4,4.8,254,978.44,19.8,51,19.74,0.0,1003.98,38.0
2018-09-01 02:10,50.6304433333333,-96.9807633333333,3.5,5.2,267,978.53,19.6,52,19.60,0.0,1004.09,38.0
2018-09-01 02:20,50.6304433333333,-96.9807616666667,3.2,4.6,262,978.63,19.3,52,19.46,0.0,1004.21,38.0
2018-09-01 02:30,50.6304283333333,-96.9807616666667,2.6,4.7,275,978.71,19.1,54,19.50,0.0,1004.32,38.0
2018-09-01 02:40,50.630455,-96.98075,3.4,6.1,279,978.76,18.5,54,19.64,0.0,1004.41,38.0
2018-09-01 02:50,50.6304083333333,-96.9807333333333,4.9,8.4,291,978.94,18.3,53,19.58,0.0,1004.64,38.0
2018-09-01 03:00,50.6304266666667,-96.9807516666667,4.3,7.0,294,979.05,18.2,52,19.43,0.0,1004.76,176.8
2018-09-01 03:10,50.6304333333333,-96.98076,4.5,7.8,290,979.10,18.0,53,19.51,0.0,1004.84,176.8
2018-09-01 03:20,50.6304333333333,-96.98076,4.8,7.9,293,979.18,17.9,54,19.51,0.0,1004.95,176.8
2018-09-01 03:30,50.6304366666667,-96.9807616666667,4.5,6.4,272,979.29,17.6,56,19.39,0.0,1005.10,176.8
2018-09-01 03:40,50.6304383333333,-96.9807616666667,4.0,7.0,275,979.36,17.0,58,19.29,0.0,1005.21,176.8
2018-09-01 03:50,50.63044,-96.9807616666667,4.0,6.8,276,979.49,16.8,59,19.28,0.0,1005.36,176.8
2018-09-01 04:00,50.6304383333333,-96.9807633333333,4.2,6.3,275,979.65,16.7,59,19.24,0.0,1005.55,142.0
2018-09-01 04:10,50.6304383333333,-96.9807633333333,3.7,5.8,269,979.85,16.6,59,19.32,0.0,1005.76,142.0
2018-09-01 04:20,50.6304383333333,-96.980765,4.8,7.7,272,980.01,16.5,59,19.32,0.0,1005.95,142.0
2018-09-01 04:30,50.6304383333333,-96.9807633333333,5.2,8.4,279,980.26,16.4,60,19.32,0.0,1006.23,142.0
2018-09-01 04:40,50.6304383333333,-96.9807633333333,6.2,12.6,293,980.40,16.4,59,19.34,0.0,1006.39,142.0
2018-09-01 04:50,50.6304366666667,-96.9807633333333,8.3,12.1,304,980.51,16.8,57,19.26,0.0,1006.48,142.0
2018-09-01 05:00,50.6304383333333,-96.9807616666667,7.0,11.3,308,980.64,16.7,58,19.19,0.0,1006.63,90.0
2018-09-01 05:10,50.6304383333333,-96.9807616666667,6.0,10.3,304,980.87,16.5,59,19.18,0.0,1006.88,90.0
2018-09-01 05:20,50.6304383333333,-96.9807616666667,4.9,8.9,296,980.98,16.2,60,19.32,0.0,1007.02,90.0
2018-09-01 05:30,50.6304383333333,-96.9807633333333,4.1,7.6,290,981.10,15.8,62,19.35,0.0,1007.19,90.0
2018-09-01 05:40,50.630465,-96.980785,4.5,7.3,296,981.25,15.5,63,19.29,0.0,1007.36,90.0
2018-09-01 05:50,50.6304466666667,-96.9807683333333,5.0,7.7,295,981.39,15.2,64,19.25,0.0,1007.52,90.0
2018-09-01 06:00,50.630445,-96.98077,3.3,5.1,278,981.52,14.9,66,19.29,0.0,1007.67,327.5
2018-09-01 06:10,50.6304466666667,-96.9807716666667,3.8,5.3,269,981.57,14.4,68,19.37,0.0,1007.76,327.5
2018-09-01 06:20,50.6304483333333,-96.98077,3.6,5.4,275,981.70,14.1,69,19.39,0.0,1007.91,327.5
2018-09-01 06:30,50.63045,-96.9807683333333,3.9,6.1,280,981.82,14.1,69,19.38,0.0,1008.03,327.5
2018-09-01 06:40,50.63045,-96.9807683333333,3.8,6.3,278,981.85,13.9,70,19.30,0.0,1008.06,327.5
2018-09-01 06:50,50.63045,-96.9807683333333,4.2,6.6,287,981.87,13.6,70,19.26,0.0,1008.09,327.5
2018-09-01 07:00,50.6304483333333,-96.9807666666667,5.0,9.1,296,981.88,13.7,69,19.30,0.0,1008.11,38.0
2018-09-01 07:10,50.6304483333333,-96.9807666666667,5.1,7.5,294,981.87,13.8,68,19.31,0.0,1008.11,38.0
2018-09-01 07:20,50.6304483333333,-96.9807666666667,4.7,7.5,289,981.98,13.7,69,19.20,0.0,1008.25,38.0
2018-09-01 07:30,50.630445,-96.9807766666667,4.1,6.4,284,982.12,13.5,70,19.17,0.0,1008.41,38.0
2018-09-01 07:40,50.6304516666667,-96.9807716666667,3.9,6.0,282,982.18,13.2,71,19.15,0.0,1008.49,38.0
2018-09-01 07:50,50.6304533333333,-96.9807666666667,3.4,4.7,267,982.29,12.9,73,19.09,0.0,1008.64,38.0
2018-09-01 08:00,50.630445,-96.980765,3.9,4.6,255,982.28,12.5,74,19.06,0.0,1008.67,270.0
2018-09-01 08:10,50.6304416666667,-96.9807633333333,4.7,5.6,248,982.39,12.2,75,19.12,0.0,1008.81,270.0
2018-09-01 08:20,50.630435,-96.98077,4.7,5.4,245,982.39,12.1,76,19.14,0.0,1008.82,270.0
2018-09-01 08:30,50.63043,-96.9807633333333,4.6,5.4,242,982.42,11.7,79,19.08,0.0,1008.87,270.0
2018-09-01 08:40,50.6304433333333,-96.980765,4.6,5.6,236,982.55,11.5,81,19.05,0.0,1009.03,270.0
2018-09-01 08:50,50.6304433333333,-96.9807683333333,5.2,6.2,233,982.65,11.3,82,19.08,0.0,1009.14,270.0
2018-09-01 09:00,50.6304433333333,-96.9807716666667,4.8,6.1,235,982.60,11.3,82,19.10,0.0,1009.09,270.0
2018-09-01 09:10,50.6304416666667,-96.9807983333333,4.9,5.9,242,982.62,11.2,82,19.11,0.0,1009.11,270.0
2018-09-01 09:20,50.6304416666667,-96.9807766666667,4.8,5.9,237,982.65,11.2,83,19.10,0.0,1009.16,270.0
2018-09-01 09:30,50.6304433333333,-96.9807766666667,5.0,6.2,229,982.62,10.9,85,19.08,0.0,1009.15,270.0
2018-09-01 09:40,50.6304416666667,-96.980775,5.2,6.4,234,982.60,10.7,86,19.07,0.0,1009.16,270.0
2018-09-01 09:50,50.6304416666667,-96.9807733333333,5.0,6.1,236,982.50,10.7,86,19.06,0.0,1009.07,270.0
2018-09-01 10:00,50.6304416666667,-96.9807733333333,4.8,6.1,237,982.45,10.7,87,19.01,0.0,1009.03,192.6
2018-09-01 10:10,50.6304416666667,-96.98077,5.5,6.6,238,982.52,10.5,87,18.95,0.0,1009.12,192.6
2018-09-01 10:20,50.6304416666667,-96.9807583333333,5.6,7.0,231,982.69,10.3,90,18.95,0.0,1009.32,192.6
2018-09-01 10:30,50.63044,-96.9807566666667,5.8,7.0,237,982.68,10.2,91,18.96,0.0,1009.33,192.6
2018-09-01 10:40,50.630445,-96.9807333333333,6.2,7.4,235,982.73,10.0,92,18.97,0.0,1009.40,192.6
2018-09-01 10:50,50.630445,-96.980745,6.2,7.7,239,982.81,10.0,93,18.97,0.0,1009.48,192.6
2018-09-01 11:00,50.6304416666667,-96.9808133333333,6.0,7.9,237,982.89,9.8,94,18.95,0.0,1009.57,270.0
2018-09-01 11:10,50.6304416666667,-96.9807783333333,6.3,8.2,237,983.02,9.6,93,18.90,0.0,1009.72,270.0
2018-09-01 11:20,50.6304416666667,-96.980775,6.1,7.7,233,983.12,9.4,94,18.89,0.0,1009.85,270.0
2018-09-01 11:30,50.6304416666667,-96.980775,6.2,7.7,232,983.21,9.3,94,18.88,0.0,1009.95,270.0
2018-09-01 11:40,50.6304416666667,-96.9807733333333,5.4,7.1,231,983.26,9.3,94,18.88,0.0,1010.00,270.0
2018-09-01 11:50,50.63044,-96.9807716666667,5.6,7.2,228,983.33,9.4,94,18.86,0.0,1010.07,270.0
2018-09-01 12:00,50.6304366666667,-96.980755,5.9,8.0,225,983.40,9.8,93,18.84,0.0,1010.13,119.2
2018-09-01 12:10,50.6304383333333,-96.9807633333333,5.6,7.9,227,983.49,10.0,91,18.82,0.0,1010.23,119.2
2018-09-01 12:20,50.6304416666667,-96.9807633333333,6.6,8.3,231,983.56,10.2,89,18.77,0.0,1010.30,119.2
2018-09-01 12:30,50.63044,-96.9807616666667,6.5,8.5,233,983.58,10.3,89,18.76,0.0,1010.32,119.2
2018-09-01 12:40,50.63044,-96.9807633333333,6.6,8.3,233,983.64,10.3,88,18.77,0.0,1010.38,119.2
2018-09-01 12:50,50.63044,-96.9807616666667,6.3,7.6,233,983.75,10.6,86,18.76,0.0,1010.49,119.2
2018-09-01 13:00,50.63044,-96.98076,5.4,7.3,228,983.84,11.1,86,18.75,0.0,1010.56,90.0
2018-09-01 13:10,50.63044,-96.98076,5.5,7.0,229,983.84,11.5,84,18.75,0.0,1010.55,90.0
2018-09-01 13:20,50.63044,-96.98076,6.0,8.4,228,983.86,11.9,83,18.74,0.0,1010.56,90.0
2018-09-01 13:30,50.63044,-96.98076,5.2,7.2,229,983.91,12.5,80,18.74,0.0,1010.58,90.0
2018-09-01 13:40,50.63045,-96.98078,6.0,7.8,219,984.11,12.9,79,18.74,0.0,1010.77,90.0
2018-09-01 13:50,50.6304466666667,-96.98077,6.8,9.8,208,984.22,13.3,81,18.73,0.0,1010.85,90.0
2018-09-01 14:00,50.6304416666667,-96.980765,6.7,9.2,214,984.28,13.8,79,18.71,0.0,1010.86,90.0
2018-09-01 14:10,50.6304383333333,-96.9807633333333,6.3,8.5,212,984.35,14.6,74,18.70,0.0,1010.90,90.0
2018-09-01 14:20,50.63044,-96.9807683333333,5.9,8.1,204,984.49,15.2,71,18.69,0.0,1011.01,90.0
2018-09-01 14:30,50.63044,-96.9807516666667,6.2,9.0,207,984.51,15.7,68,18.67,0.0,1011.00,90.0
2018-09-01 14:40,50.6304383333333,-96.98076,7.3,9.8,212,984.59,16.3,64,18.68,0.0,1011.05,90.0
2018-09-01 14:50,50.6304366666667,-96.9807633333333,6.9,9.5,197,984.63,16.4,66,18.68,0.0,1011.06,90.0
2018-09-01 15:00,50.630435,-96.980765,5.6,10.4,206,984.50,16.9,64,18.68,0.0,1010.87,270.0
2018-09-01 15:10,50.6304416666667,-96.9807733333333,6.9,9.9,207,984.53,17.2,58,18.69,0.0,1010.88,270.0
2018-09-01 15:20,50.6304383333333,-96.9807683333333,8.1,11.2,203,984.64,17.5,57,18.70,0.0,1010.95,270.0
2018-09-01 15:30,50.63044,-96.980765,7.0,11.5,209,984.70,17.8,55,18.71,0.0,1010.98,270.0
2018-09-01 15:40,50.63044,-96.9807683333333,8.0,11.7,220,984.75,18.3,50,18.72,0.0,1010.99,270.0
2018-09-01 15:50,50.6304483333333,-96.9807716666667,7.3,13.9,218,984.78,18.6,48,18.72,0.0,1010.98,270.0
2018-09-01 16:00,50.6304283333333,-96.9807716666667,8.5,14.1,217,984.62,18.9,45,18.72,0.0,1010.77,183.2
2018-09-01 16:10,50.63043,-96.9807683333333,8.6,12.9,207,984.50,19.0,44,18.71,0.0,1010.61,183.2
2018-09-01 16:20,50.6304283333333,-96.9807583333333,10.3,14.0,210,984.53,19.2,42,18.72,0.0,1010.61,183.2
2018-09-01 16:30,50.6304283333333,-96.98076,8.6,12.3,215,984.55,19.4,42,18.73,0.0,1010.60,183.2
2018-09-01 16:40,50.63043,-96.9807616666667,9.0,12.7,209,984.41,19.7,41,18.76,0.0,1010.44,183.2
2018-09-01 16:50,50.63044,-96.9807766666667,9.3,16.2,218,984.34,20.0,39,18.79,0.0,1010.33,183.2
2018-09-01 17:00,50.63044,-96.9807833333333,9.7,15.4,219,984.21,20.1,37,18.83,0.0,1010.17,270.0
2018-09-01 17:10,50.6304416666667,-96.9807816666667,8.1,13.5,228,984.37,20.3,36,18.87,0.0,1010.31,270.0
2018-09-01 17:20,50.6304433333333,-96.9807783333333,7.9,13.4,231,984.36,20.4,35,18.91,0.0,1010.28,270.0
2018-09-01 17:30,50.63044,-96.98078,7.7,12.5,231,984.28,20.7,35,18.95,0.0,1010.17,270.0
2018-09-01 17:40,50.63044,-96.98078,9.0,16.1,256,984.23,20.9,33,19.01,0.0,1010.09,270.0
2018-09-01 17:50,50.6304383333333,-96.9807766666667,8.3,12.9,236,984.14,21.0,33,19.07,0.0,1009.98,270.0
2018-09-01 18:00,50.6304416666667,-96.9807783333333,6.6,11.3,231,984.18,21.2,33,19.14,0.0,1010.01,291.5
2018-09-01 18:10,50.6304416666667,-96.980775,7.6,13.2,235,984.27,21.2,32,19.19,0.0,1010.10,291.5
2018-09-01 18:20,50.6304433333333,-96.9807766666667,7.7,13.3,231,984.42,21.3,33,19.28,0.0,1010.24,291.5
2018-09-01 18:30,50.630465,-96.9807716666667,9.5,15.1,210,984.33,21.2,33,19.33,0.0,1010.14,291.5
2018-09-01 18:40,50.6304516666667,-96.9807816666667,8.6,16.7,218,984.22,21.5,33,19.37,0.0,1010.00,291.5
2018-09-01 18:50,50.630445,-96.98077,7.4,13.4,226,984.24,21.6,32,19.41,0.0,1010.01,291.5
2018-09-01 19:00,50.630425,-96.9807716666667,5.9,12.8,231,984.18,21.7,31,19.40,0.0,1009.93,90.0
2018-09-01 19:10,50.6304433333333,-96.9807733333333,7.2,13.7,197,984.01,21.7,32,19.42,0.0,1009.76,90.0
2018-09-01 19:20,50.630445,-96.98078,7.0,13.9,218,983.91,21.9,29,19.45,0.0,1009.63,90.0
2018-09-01 19:30,50.6304333333333,-96.980755,7.3,11.0,195,983.82,21.9,30,19.50,0.0,1009.53,90.0
2018-09-01 19:40,50.6304383333333,-96.98076,7.3,11.0,191,983.77,21.9,30,19.51,0.0,1009.48,90.0
2018-09-01 19:50,50.6304433333333,-96.980755,7.4,13.3,199,983.70,22.1,30,19.50,0.0,1009.38,90.0
2018-09-01 20:00,50.6304783333333,-96.98076,9.8,13.4,186,983.57,22.1,29,19.48,0.0,1009.25,24.4
2018-09-01 20:10,50.6304633333333,-96.9807666666667,7.4,14.3,161,983.40,22.1,34,19.46,0.0,1009.07,24.4
2018-09-01 20:20,50.63044,-96.9807783333333,10.2,12.3,106,983.27,21.9,49,19.47,0.0,1008.95,24.4
2018-09-01 20:30,50.6304466666667,-96.9807783333333,10.2,12.5,110,983.31,21.6,52,19.50,0.0,1008.99,24.4
2018-09-01 20:40,50.6304466666667,-96.980775,9.0,12.1,100,983.13,21.8,52,19.51,0.0,1008.80,24.4
2018-09-01 20:50,50.6304433333333,-96.9807733333333,10.9,13.9,103,982.92,21.9,54,19.49,0.0,1008.58,24.4
2018-09-01 21:00,50.630435,-96.98077,10.0,12.5,105,982.79,21.7,53,19.39,0.0,1008.44,111.5
2018-09-01 21:10,50.6304366666667,-96.9807716666667,11.5,14.3,108,982.62,21.6,54,19.27,0.0,1008.27,111.5
2018-09-01 21:20,50.630435,-96.9807683333333,10.6,13.6,103,982.38,21.5,59,19.21,0.0,1008.02,111.5
2018-09-01 21:30,50.6304483333333,-96.9807683333333,13.0,15.3,111,982.10,21.0,60,19.14,0.0,1007.76,111.5
2018-09-01 21:40,50.63045,-96.9807683333333,12.1,15.6,115,981.80,21.1,58,19.11,0.0,1007.44,111.5
2018-09-01 21:50,50.6304483333333,-96.9807633333333,12.4,15.4,121,981.54,21.5,56,19.16,0.0,1007.16,111.5
2018-09-01 22:00,50.6304466666667,-96.98076,11.0,13.4,124,981.49,21.5,57,19.16,0.0,1007.11,32.1
2018-09-01 22:10,50.630445,-96.9807616666667,11.9,15.8,131,981.24,21.3,55,19.19,0.0,1006.86,32.1
2018-09-01 22:20,50.630445,-96.980765,11.6,15.8,131,981.02,21.8,51,19.23,0.0,1006.63,32.1
2018-09-01 22:30,50.63044,-96.9807683333333,12.6,16.6,127,980.74,21.9,51,19.25,0.0,1006.33,32.1
2018-09-01 22:40,50.630445,-96.9807783333333,12.9,16.4,137,980.74,21.5,49,19.29,0.0,1006.34,32.1
2018-09-01 22:50,50.6304516666667,-96.9807683333333,14.2,18.7,140,980.74,21.5,48,19.30,0.0,1006.35,32.1
2018-09-01 23:00,50.6304433333333,-96.9807616666667,15.3,17.8,144,980.66,21.5,47,19.27,0.0,1006.27,360.0
2018-09-01 23:10,50.6304433333333,-96.9807616666667,14.9,17.3,147,980.68,21.5,49,19.27,0.0,1006.30,360.0
2018-09-01 23:20,50.630445,-96.9807633333333,14.3,17.5,149,980.64,21.5,46,19.25,0.0,1006.28,360.0
2018-09-01 23:30,50.6304433333333,-96.980765,14.2,15.9,144,980.44,21.5,48,19.23,0.0,1006.07,360.0
2018-09-01 23:40,50.630445,-96.9807666666667,13.7,16.0,148,980.39,21.4,48,19.22,0.0,1006.01,360.0
